Terminal Aerodrome Forecast
Issued by NWS

Home | Current Version | Previous Version | Graphics & Text | Print | Product List | Glossary On
Versions: 1 2 3 4 5 6 7 8 9 10 11 12 13 14 15
000
FTUS42 KMHX 252300
TAFOAJ
TAF
KOAJ 252332Z 2600/2624 02006KT P6SM SCT040
     FM261300 04012G18KT P6SM SCT025
      AMD LTD TO CLD VIS AND WIND=

USA.gov is the U.S. government's official web portal to all federal, state and local government web resources and services.